Flag for Morocco Weather past 2 weeks in Casablanca, Morocco

45 °F

Scattered clouds.

Feels Like: 41 °F
Forecast: 56 / 65 °F
Wind: 6 mph from Southeast

Location: Nouasseur

Current Time: Nov 27, 2015 at 7:38:48 AM

Latest Report: Nov 27, 2015 at 6:30 AM

Visibility: 4 mi

Pressure: 30.04 "Hg

Humidity: 93%

Dew point: 43 °F

Location of CasablancaLocation

Historic Weather in Casablanca — Graph


Casablanca temperature yesterday

Maximum temperature yesterday: 68 °F (at 2:30 PM)
Minimum temperature yesterday: 43 °F (at 6:00 AM)
Average temperature yesterday: 55 °F

Past Weeks' High & Low Weather Summary

High79 °F (Nov 12, 1:30 PM)100% (Nov 12, 6:00 AM)30.45 "Hg (Nov 12, 6:00 AM)
Low39 °F (Nov 24, 7:00 AM)44% (Nov 13, 2:00 PM)29.98 "Hg (Nov 23, 3:30 AM)
Average59 °F81%30.25 "Hg
* Reported Nov 12 6:00 AM — Nov 27 6:30 AM, Casablanca, Weather by CustomWeather, © 2015

Note: Actual official high and low records may vary slightly from our data, if they occured in-between our weather recording intervals... More about our weather records


Casablanca weather history for previous 24 hours

Time TempWeatherWind HumidityBarometerVisibility
6:30 AM
Fri, Nov 27
45 °FScattered clouds.6 mph93%30.04 "Hg4 mi
6:00 AM46 °FPassing clouds.3 mph93%30.04 "Hg6 mi
5:30 AM46 °FPassing clouds.3 mph93%30.04 "HgN/A
5:00 AM48 °FPassing clouds.2 mph94%30.04 "HgN/A
4:00 AM48 °FPassing clouds.6 mph100%30.04 "Hg4 mi
3:30 AM48 °FCool.No wind94%30.04 "Hg4 mi
3:00 AM48 °FPassing clouds.No wind100%30.04 "HgN/A
2:30 AM48 °FPassing clouds.No wind100%30.07 "HgN/A
2:00 AM48 °FPassing clouds.No wind100%30.07 "Hg4 mi
1:30 AM48 °FPassing clouds.No wind94%30.07 "Hg1 mi
1:00 AM50 °FPassing clouds.2 mph94%30.07 "HgN/A
12:30 AM50 °FPassing clouds.3 mph94%30.07 "Hg6 mi
12:00 AM50 °FPassing clouds.3 mph94%N/AN/A
11:30 PM
Thu, Nov 26
50 °FPassing clouds.2 mph94%30.09 "HgN/A
11:00 PM50 °FPassing clouds.2 mph94%30.09 "Hg4 mi
10:00 PM52 °FPassing clouds.6 mph94%30.12 "Hg4 mi
9:30 PM54 °FPassing clouds.6 mph94%30.12 "Hg4 mi
9:00 PM55 °FPassing clouds.3 mph94%30.12 "HgN/A
8:30 PM55 °FPassing clouds.2 mph94%30.12 "HgN/A
8:00 PM57 °FPassing clouds.5 mph88%30.12 "HgN/A
7:30 PM57 °FPassing clouds.7 mph88%30.12 "HgN/A
7:00 PM57 °FPassing clouds.7 mph88%30.12 "HgN/A
6:30 PM57 °FPassing clouds.7 mph88%30.12 "HgN/A
6:00 PM59 °FPassing clouds.9 mph82%30.12 "HgN/A
5:30 PM61 °FPassing clouds.10 mph77%30.09 "HgN/A
5:00 PM64 °FPassing clouds.7 mph68%30.12 "HgN/A
4:30 PM66 °FMild.7 mph64%30.12 "HgN/A
4:00 PM66 °FPassing clouds.9 mph60%30.12 "HgN/A
3:30 PM68 °FPassing clouds.8 mph56%30.12 "HgN/A
3:00 PM68 °FPassing clouds.9 mph60%30.12 "HgN/A
2:30 PM68 °FPassing clouds.9 mph56%30.12 "HgN/A
1:30 PM66 °FScattered clouds.9 mph60%30.15 "HgN/A
1:00 PM66 °FScattered clouds.10 mph60%30.18 "HgN/A
12:30 PM66 °FPassing clouds.7 mph60%30.21 "HgN/A
12:00 PM66 °FPassing clouds.7 mph60%30.21 "HgN/A
11:30 AM64 °FSunny.5 mph68%30.24 "Hg10 mi
11:00 AM64 °FPassing clouds.3 mph68%30.24 "HgN/A
10:30 AM63 °FPassing clouds.3 mph68%30.24 "HgN/A
10:00 AM61 °FPassing clouds.6 mph68%30.27 "HgN/A
9:30 AM57 °FScattered clouds.5 mph72%30.27 "HgN/A
9:00 AM52 °FScattered clouds.3 mph82%30.27 "HgN/A
8:30 AM48 °FScattered clouds.2 mph87%30.27 "HgN/A
8:00 AM46 °FScattered clouds.5 mph82%30.24 "HgN/A
7:30 AM43 °FScattered clouds.3 mph93%30.24 "HgN/A
7:00 AM43 °FScattered clouds.6 mph81%30.27 "HgN/A
Weather by CustomWeather, © 2015

See weather overviewHow to use our weather pages